TimePST,TemperatureF,Dew PointF,Humidity,Sea Level PressureIn,VisibilityMPH,Wind Direction,Wind SpeedMPH,Gust SpeedMPH,PrecipitationIn,Events,Conditions,WindDirDegrees,DateUTC
1:53 AM,26.1,24.1,92,30.38,10.0,NNE,3.5,-,N/A,,Clear,30,2013-02-03 09:53:00
2:53 AM,24.1,21.9,91,30.38,10.0,NE,5.8,-,N/A,,Clear,50,2013-02-03 10:53:00
3:53 AM,25.0,21.9,88,30.38,10.0,Calm,Calm,-,N/A,,Clear,0,2013-02-03 11:53:00
4:53 AM,21.0,18.0,88,30.39,10.0,Calm,Calm,-,N/A,,Clear,0,2013-02-03 12:53:00
5:40 AM,23.0,21.2,93,30.30,7.0,Calm,Calm,-,N/A,,Partly Cloudy,0,2013-02-03 13:40:00
5:53 AM,21.0,19.0,92,30.39,10.0,Calm,Calm,-,N/A,,Partly Cloudy,0,2013-02-03 13:53:00
6:21 AM,21.2,17.6,86,30.31,10.0,Calm,Calm,-,N/A,,Mostly Cloudy,0,2013-02-03 14:21:00
6:35 AM,21.2,17.6,86,30.31,10.0,ENE,3.5,-,N/A,,Scattered Clouds,60,2013-02-03 14:35:00
6:53 AM,21.9,19.0,89,30.41,10.0,ENE,6.9,-,N/A,,Clear,70,2013-02-03 14:53:00
7:53 AM,21.9,19.9,92,30.42,10.0,Calm,Calm,-,N/A,,Clear,0,2013-02-03 15:53:00
8:53 AM,26.1,25.0,96,30.43,9.0,Calm,Calm,-,N/A,,Clear,0,2013-02-03 16:53:00
9:53 AM,33.1,28.9,85,30.43,10.0,Calm,Calm,-,N/A,,Clear,0,2013-02-03 17:53:00
10:53 AM,37.9,28.9,70,30.43,10.0,Calm,Calm,-,N/A,,Clear,0,2013-02-03 18:53:00
11:53 AM,41.0,30.9,67,30.38,10.0,Calm,Calm,-,N/A,,Clear,0,2013-02-03 19:53:00
12:53 PM,46.0,32.0,58,30.34,10.0,Calm,Calm,-,N/A,,Clear,0,2013-02-03 20:53:00
1:53 PM,50.0,32.0,50,30.30,10.0,SE,3.5,-,N/A,,Clear,140,2013-02-03 21:53:00
2:53 PM,50.0,33.1,52,30.30,10.0,Calm,Calm,-,N/A,,Clear,0,2013-02-03 22:53:00
3:53 PM,51.1,32.0,48,30.28,10.0,South,3.5,-,N/A,,Clear,180,2013-02-03 23:53:00
4:53 PM,48.9,33.1,54,30.28,10.0,SSW,3.5,-,N/A,,Clear,200,2013-02-04 00:53:00
5:53 PM,39.9,33.1,77,30.30,10.0,SE,3.5,-,N/A,,Clear,130,2013-02-04 01:53:00
6:53 PM,37.0,28.9,73,30.31,10.0,North,3.5,-,N/A,,Clear,350,2013-02-04 02:53:00
7:53 PM,39.0,32.0,76,30.30,10.0,Calm,Calm,-,N/A,,Clear,0,2013-02-04 03:53:00
8:53 PM,37.0,32.0,82,30.31,10.0,Calm,Calm,-,N/A,,Clear,0,2013-02-04 04:53:00
9:53 PM,36.0,30.9,82,30.31,10.0,Calm,Calm,-,N/A,,Clear,0,2013-02-04 05:53:00
10:53 PM,36.0,30.9,82,30.31,10.0,Calm,Calm,-,N/A,,Clear,0,2013-02-04 06:53:00
11:53 PM,35.1,30.0,82,30.30,10.0,Calm,Calm,-,N/A,,Clear,0,2013-02-04 07:53:00